OBJECT AG, 57196

Orbit data source: Space-Track

You're viewing an uncataloged RSO

Recently launched and/or uncataloged RSOs may have evolving metadata. Metadata may include the following, but is not limited to: Owner, Manufacturer, Bus, Motor, and Mission.

OBJECT AG, 57196 is a satellite in SSO that was launched on Tue, 27 Jun 2023 UTC via a SOYUZ-2-1B launch vehicle from the Vostochny Cosmodrome (VOSTO). Unknown objects in Earth's orbit typically refer to objects detected orbiting the Earth but have not yet been identified or cataloged. These objects could be anything from previously untracked satellites, spent rocket stages, debris from satellite collisions, or even natural meteoroids temporarily captured by Earth's gravity.

Loading next visibility...
Identifier
57196, 2023-091AG
Orbit
SSO
Country
Flag of TBDTBD
Related business
Flag of RUMoscow State Technical University of Civil Aviation (RU)
Manufacturer
MGTU Bauman
Mission
Operational Amateur Technology
Bus & Motor
CUBESAT 6U?, Unknown motor
Mass
10 kg wet, 10 kg dry
Launch date (UTC)
2023-06-27 (3 years ago)
Launch vehicle
SOYUZ-2-1B
Launch site
Vostochny Cosmodrome (VOSTO)
Object type
Unknown
Shape & HBR
Box, 0.2 m
Radar Cross Section
0.080 m², Medium (>0.1 m² and < 1m²)

Expand to show TLE details & history
Last TLE update: 6 hours ago

TLE from 6 hours ago
0 OBJECT AG
1 57196U 23091AG  26220.20388034  .00006387  00000-0  20220-3 0  9996
2 57196  97.5055 287.9774 0006205 251.0948 108.9622 15.33096595172494
Epoch: 2026-08-08T04:53Z
TLE epoch observation values (Epoch: 2026-08-08T04:53:35.261Z)
Latitude
0.00003°
Longitude
-102.13811°
Altitude
471.068 km
Speed
7.63 km/s
True Right ascension
19h 11m 54s
True Declination
0° 00' 00"
Sunlit
Object was in full shadow at epoch
Visualization orbit readout
Latitude
Unknown
Longitude
Unknown
Altitude
Unknown
Speed
Unknown
Apparent Right ascension
Unknown
Apparent Declination
Unknown
Sunlit
N/A
Visualization observer readout
Local Sidereal Time
00:56:37
Azimuth
Unknown
Elevation
Unknown
Doppler factor
Unknown
Orbital elements
Apogee altitude
467.778 km
Perigee altitude
459.287 km
Semi-major axis
6,841.67 km
Eccentricity
0.00062
Inclination
97.5055°
RAAN
287.9774°
Arg. of periapsis
251.0948°
True anomaly
109.02943°
Mean anomaly
108.9622°
Eccentric anomaly
108.99582°
Mean motion
3.83531 °/min
Orbital period
93.86 mins
BSTAR
0.0002022
Loading maneuver chart data...
Computing Atmospheric mass density...
Loading historical data...
Loading historical data...
Loading historical data...
Loading historical data...
Loading historical data...
Loading historical data...
Loading historical data...

Documentation

Showing up to 5 results
|